This demonstration page uses our WeatherBlox Daily Observations layout. Learn more.

Left ArrowRight Arrow

Hourly Observations for May 25, 2019

Temp ( °F °C ) Dew Point ( °F °C ) Humidity (%) Winds ( mph kmh ) Pressure ( in mb ) Visibility ( mi km ) Precip ( " mm )
12:52 am 00:52 Cloudy 72 22.2 63 17.2 73 73 NW 10 17 30.03 1017 10 16 0.00 0.00
1:52 am 01:52 Cloudy with Light Rain 67 19.4 63 17.2 87 87 NW 6 9 30.01 1016 10 16 0.02 0.51
2:52 am 02:52 Cloudy 67 19.4 63 17.2 87 87 W 6 9 30.02 1017 10 16 0.04 1.02
3:52 am 03:52 Cloudy with Light Rain 66 18.9 63 17.2 90 90 NNW 3 6 30.02 1017 10 16 0.00 0.03
4:52 am 04:52 Cloudy with Rain 65 18.3 63 17.2 93 93 E 17 28 29.91 1013 7 11 0.05 1.27
5:52 am 05:52 Clear 65 18.3 62 16.7 90 90 SE 6 9 29.96 1015 10 16 0.00 0.03
6:52 am 06:52 Mostly Cloudy 65 18.3 63 17.2 93 93 S 3 6 30.01 1016 10 16 0.00 0.00
7:52 am 07:52 Mostly Sunny 68 20 64 17.8 87 87 SSE 8 13 30.02 1017 10 16 0.00 0.00
8:52 am 08:52 Sunny 71 21.7 64 17.8 79 79 S 12 19 30.04 1017 10 16 0.00 0.00
9:52 am 09:52 Sunny 74 23.3 66 18.9 76 76 S 13 20 30.04 1017 10 16 0.00 0.00
10:52 am 10:52 Sunny 78 25.6 68 20 71 71 SSW 14 22 30.04 1017 10 16 0.00 0.00
11:52 am 11:52 Mostly Sunny 82 27.8 69 20.6 65 65 SW 15 24 30.04 1017 10 16 0.00 0.00
12:52 pm 12:52 Mostly Cloudy 83 28.3 68 20 61 61 SW 14 22 30.04 1017 10 16 0.00 0.00
1:52 pm 13:52 Mostly Cloudy 84 28.9 68 20 59 59 SSW 14 22 30.03 1017 10 16 0.00 0.00
2:52 pm 14:52 Sunny 85 29.4 64 17.8 50 50 SW 17 28 30.01 1016 10 16 0.00 0.00
3:52 pm 15:52 Sunny 84 28.9 65 18.3 53 53 SW 10 17 30.00 1016 10 16 0.00 0.00
4:52 pm 16:52 Sunny 84 28.9 65 18.3 53 53 SSW 10 17 29.99 1016 10 16 0.00 0.00
5:52 pm 17:52 Sunny 84 28.9 66 18.9 55 55 S 12 19 29.98 1015 10 16 0.00 0.00
6:52 pm 18:52 Sunny 83 28.3 67 19.4 59 59 S 9 15 29.97 1015 10 16 0.00 0.00
7:52 pm 19:52 Sunny 79 26.1 66 18.9 65 65 S 8 13 29.97 1015 10 16 0.00 0.00
8:52 pm 20:52 Clear 76 24.4 66 18.9 72 72 S 6 9 29.98 1015 10 16 0.00 0.00
9:52 pm 21:52 Clear 75 23.9 66 18.9 74 74 S 8 13 29.99 1016 10 16 0.00 0.00
10:52 pm 22:52 Clear 73 22.8 66 18.9 79 79 S 7 11 30.01 1016 10 16 0.00 0.00
11:52 pm 23:52 Clear 72 22.2 66 18.9 82 82 S 7 11 30.01 1016 10 16 0.00 0.00

Powered by AerisWeather